www.pogodaiklimat.ru

Погода и климат >> Архив погоды >> Черногория >> Подгорица


АРХИВ ПОГОДЫ в Подгорице

Время (UTC), дата Ветер
(напр.,м/с)
 
Видим.   Явления Облачность Т
(С)
Тd
(С)
f
(%)
Тe
(С)
Тes
(С)
Комфортность P
(гПа)
Po
(гПа)
Тmin
(С)
Tmax
(С)
R
(мм)
R24
(мм)
S
(см)
06 17.02 С 2 20 км ясно +0.8 -3.0 76 -3 -2 прохладно 1028.4 1024.1 -1.2
09 17.02 штиль 0 20 км ясно +10.0 -4.1 37 +10 +18 тепло 1028.2 1024.0
12 17.02 Ю 2 20 км ясно +13.8 -2.5 32 +14 +20 тепло 1026.3 1022.2
15 17.02 Ю 1 20 км ясно +15.5 -5.5 23 +16 +17 тепло 1024.9 1020.8
18 17.02 штиль 0 20 км ясно +7.8 -1.7 51 +8 +8 тепло 1025.5 1021.3 +16.0
21 17.02 штиль 0 20 км ясно +3.9 +0.4 78 +3 +3 по сезону 1026.4 1022.1
00 18.02 С 1 20 км ясно +2.8 -1.6 73 +1 +1 по сезону 1026.1 1021.8
03 18.02 С 1 20 км ясно +1.7 -2.7 73 0 0 по сезону 1025.5 1021.2
06 18.02 штиль 0 20 км ясно +1.0 -1.5 83 -0 0 по сезону 1025.7 1021.4 +0.1
09 18.02 штиль 0 20 км ясно +10.5 +0.4 50 +10 +18 тепло 1025.7 1021.6
12 18.02 Ю 1 20 км ясно +15.2 -1.0 33 +16 +24 тепло 1023.8 1019.7
15 18.02 ЮВ 2 20 км ясно +15.7 -2.0 30 +16 +17 тепло 1022.5 1018.5
18 18.02 штиль 0 20 км ясно +9.2 -0.1 52 +9 +9 тепло 1023.3 1019.1 +16.5
21 18.02 СВ 2 6000 м дым ясно +5.7 +0.2 68 +4 +4 по сезону 1024.2 1020.0
00 19.02 СВ 2 10 км ясно +4.8 -1.1 66 +3 +3 по сезону 1024.1 1019.8
03 19.02 штиль 0 10 км ясно +2.0 -0.3 85 +1 +1 по сезону 1023.2 1018.9
06 19.02 СВ 1 10 км ясно +1.0 -1.3 85 -1 -1 по сезону 1024.0 1019.7 +0.9
09 19.02 СВ 1 20 км ясно +10.7 -0.6 45 +11 +18 тепло 1024.0 1019.9
12 19.02 Ю 2 20 км ясно +15.0 -0.2 35 +15 +22 тепло 1022.4 1018.3
15 19.02 Ю 2 20 км ясно +15.5 +1.7 39 +16 +16 тепло 1021.6 1017.5
18 19.02 Ю 1 20 км ясно +9.7 +3.2 64 +9 +9 тепло 1021.9 1017.7 +15.9
21 19.02 СВ 2 10 км ясно +5.9 +4.2 89 +3 +3 по сезону 1022.8 1018.6
00 20.02 СВ 1 10 км ясно +4.2 +1.5 83 +3 +3 по сезону 1023.0 1018.7
03 20.02 С 1 10 км ясно +2.3 +1.3 93 +1 +1 по сезону 1022.8 1018.5
06 20.02 СВ 1 10 км ясно +1.6 0.0 89 -0 0 по сезону 1023.3 1019.0 +1.3
09 20.02 штиль 0 10 км ясно +10.2 +0.4 51 +10 +19 тепло 1024.0 1019.9
12 20.02 Ю 1 10 км ясно +14.2 +2.7 46 +15 +23 тепло 1022.7 1018.6
15 20.02 Ю 2 10 км ясно +14.7 +3.0 45 +15 +15 тепло 1021.7 1017.6
18 20.02 штиль 0 10 км ясно +9.0 +2.4 63 +9 +9 тепло 1022.9 1018.7 +15.1
21 20.02 СВ 1 10 км ясно +6.0 +3.6 85 +5 +5 по сезону 1024.0 1019.8
00 21.02 С 2 10 км ясно +5.7 +3.9 88 +3 +3 по сезону 1024.6 1020.4
03 21.02 С 2 10 км ясно +4.0 +3.0 93 +1 +1 по сезону 1024.8 1020.5
06 21.02 С 1 10 км ясно +2.6 +2.6 100 +1 +1 по сезону 1025.9 1021.6 +1.9
09 21.02 Ю 2 10 км ясно +11.5 +4.0 60 +11 +17 тепло 1026.3 1022.1
12 21.02 ЮЗ 2 10 км ясно +16.1 +2.2 39 +16 +24 тепло 1024.7 1020.7
15 21.02 Ю 2 20 км ясно +16.3 -0.1 33 +17 +17 тепло 1023.5 1019.4
18 21.02 штиль 0 20 км ясно +10.2 0.0 49 +10 +10 тепло 1024.1 1020.0 +17.3
21 21.02 С 3 20 км ясно +8.5 -2.7 45 +7 +7 тепло 1024.5 1020.3
00 22.02 С 2 20 км ясно +8.7 -3.2 43 +8 +8 тепло 1023.6 1019.4
03 22.02 СВ 1 20 км ясно +5.1 -0.7 66 +4 +4 по сезону 1022.5 1018.3
06 22.02 штиль 0 10 км 9/0
[Ac As]
+4.9 +2.4 84 +4 +4 по сезону 1021.5 1017.2 +2.6
09 22.02 С 3 10 км слаб. дождь 10/4 1500 м
[Sc As op]
+10.4 +2.3 57 +9 +9 тепло 1021.3 1017.2
12 22.02 ЮЗ 1 10 км {дождь} 9/3 1500 м
[Sc Ac trans Ci sp]
+13.7 +2.0 45 +14 +18 тепло 1018.6 1014.5 0.1
15 22.02 Ю 1 10 км 9/3 1500 м
[Sc Ac trans Ci sp]
+12.1 +2.8 53 +12 +13 тепло 1017.1 1013.0
18 22.02 С 1 10 км 5/3 1500 м
[Sc Ac trans]
+10.3 +1.9 56 +10 +10 тепло 1017.0 1012.9 +14.4 0.1
21 22.02 С 5 10 км 10/1 1500 м
[Sc Ac trans Cs]
+12.0 -0.4 42 +10 +10 тепло 1016.5 1012.4
00 23.02 С 13 10 км 6/0
[Ac As]
+7.3 -15.5 18 +2 +2 по сезону 1019.9 1015.7
03 23.02 С 13 10 км 5/0
[Ac trans]
+3.4 -16.5 22 -3 -3 прохладно 1020.5 1016.2
06 23.02 СВ 14
{21}
20 км ясно -0.3 -16.2 29 -9 -9 очень
холодно
1022.5 1018.2 -0.4
09 23.02 СВ 7 20 км 3/0
[Ci sp]
+3.8 -15.2 23 -1 +1 холодно 1022.6 1018.4
12 23.02 СВ 11 20 км 4/0
[Ac trans Ci sp]
+5.4 -13.8 24 0 0 очень
холодно
1023.2 1019.0
15 23.02 СВ 11 20 км ясно +4.0 -14.3 25 -2 -2 очень
холодно
1024.6 1020.4
18 23.02 С 12 20 км ясно +1.6 -14.1 30 -6 -6 очень
холодно
1027.6 1023.3 +5.4
21 23.02 С 10 20 км ясно +1.2 -14.1 31 -6 -6 очень
холодно
1029.0 1024.7

 

Местоположение метеостанции Подгорица (Черногория): широта 42.37 долгота 19.25 высота над уровнем моря 33 м.

В архиве по умолчанию представлена погода в Подгорице за последнюю неделю. Архивные данные за месяц целиком и за предыдущие месяцы, начиная с января 2011 года, Вы можете получить, выбрав интересующий диапазон дат из раскрывающегося списка и нажав кнопку "Ввод!".


*Определитесь, кто Вы:
робот инопланетянин человек

Внимание! Время в таблицах - всемирное. Для получения местного времени необходимо прибавить поправку, которая равна 1 ч.

Смотрите также архив погоды в соседних городах и на ближайших метеорологических станциях:

Погода в Подгорица-Граде (Черногория) (7 км)
Погода в Баре (Черногория) (32 км)
Погода в Шкодре (Албания) (38 км)
Погода в Тивате (Черногория) (43 км)
Погода в Никшиче (Черногория) (51 км)
Погода в Дубровник аэропорту (Хорватия) (83 км)
Погода в Дубровнике (Хорватия) (101 км)
Погода в Плевле (Черногория) (109 км)
Погода в Тиране Лапрака (Албания) (117 км)
Погода в Женике (Сербия) (118 км)

Пояснения к столбцам:

Ветер - указаны скорость ветра в м/с - средняя за 10 мин, порывы в срок и между сроками (в фигурных скобках) и направление, откуда дует ветер: С - северный, СВ - северо-восточный, В - восточный, ЮВ - юго-восточный, Ю - южный, ЮЗ - юго-западный, З - западный, СЗ - северо-западный.
Видимость - горизонтальная дальность видимости в метрах или километрах. При видимости от 1 до 10 км при отсутствии осадков обычно наблюдается дымка, при ухудшении видимости до 1 км и менее - туман. В сухую погоду видимость может ухудшаться дымом, пылью или мглою.
Явления - указаны атмосферные явления, наблюдавшиеся в срок или в последний час перед сроком; фигурными скобками обозначены явления, наблюдавшиеся между сроками (за 1-3 часа до срока); квадратными скобками обозначены град или гололедные отложения с указанием их диаметра в мм.
Облачность - указаны через наклонную черту общая и нижняя облачность в баллах и высота нижней границы облаков в метрах; квадратными скобками обозначены формы облаков: Ci - перистые, Cs - перисто-слоистые, Cc - перисто-кучевые, Ac - высококучевые, As - высокослоистые, Sc - слоисто-кучевые, Ns - слоисто-дождевые, Cu - кучевые, Cb - кучево-дождевые. Подробнее классификацию облаков см. в Атласе облаков (PDF).
T - Температура воздуха - температура, измеренная на высоте 2 м над землей.
Td - Температура точки росы - температура, при понижении до которой содержащийся в воздухе водяной пар достигнет насыщения.
f - Относительная влажность воздуха - влажноcть воздуха, измеренная на высоте 2 м над землей.
Te - Эффективная температура - температура, которую ощущает одетый по сезону человек в тени. Характеристика душности погоды. При расчете учитывается влияние влажности воздуха и скорости ветра на теплоощущения человека.
Tes - Эффективная температура на солнце - температура, которую ощущает человек, с поправкой на солнечный нагрев. Характеристика знойности погоды. Зависит от высоты солнца над горизонтом, облачности и скорости ветра. Ночью, в пасмурную погоду, а также при ветре 12 м/с и более поправка равна нулю.
P - Атмосферное давление - приведенное к уровню моря атмосферное давление.
Po - Атмосферное давление - измеренное на уровне метеостанции атмосферное давление.
Tmin - Минимальная температура - минимум температуры воздуха на высоте 2 м над землей.
Tmax - Максимальная температура - максимум температуры воздуха на высоте 2 м над землей.
R - Количество осадков - Количество выпавших осадков за период времени, мм. При наведении курсора мыши на число - период времени, за который выпало указанное количество осадков.
R24 - Количество осадков - Количество выпавших осадков за 24 часа, мм.
S - Снежный покров - Высота снежного покрова, см. При наведении курсора мыши на число - состояние снежного покрова и степень покрытия местности в баллах.